Home   Weather   Greenwich   Past weeks
Flag for Australia

Past Weather in Greenwich, New South Wales, Australia — Yesterday and Last 2 Weeks

Now
54 °F

Clear.


Feels Like: 49 °F
Forecast: 65 / 48 °F
Wind: 15 mph from West

Location: Sydney Airport

Current Time: Jul 16, 2019 at 10:49:46 pm

Latest Report: Jul 16, 2019 at 10:00 pm


Visibility: 10 mi

Pressure: 30.09 "Hg

Humidity: 58%

Dew Point: 39 °F

Location of GreenwichLocation

Past Weather in Greenwich — Graph

°F

Greenwich Temperature Yesterday

Maximum temperature yesterday: 64 °F (at 3:13 pm)
Minimum temperature yesterday: 48 °F (at 12:00 am)
Average temperature yesterday: 56 °F

High & Low Weather Summary for the Past Weeks

 TemperatureHumidityPressure
High70 °F (Jul 2, 3:30 pm)100% (Jul 4, 7:30 am)30.60 "Hg (Jul 4, 7:30 am)
Low45 °F (Jul 14, 5:00 am)21% (Jul 11, 3:00 pm)29.74 "Hg (Jul 11, 4:30 am)
Average58 °F61%30.18 "Hg
* Reported Jul 1 9:00 pm — Jul 16 9:30 pm, Greenwich. Weather by CustomWeather, © 2019

Note: Actual official high and low records may vary slightly from our data, if they occured in-between our weather recording intervals... More about our weather records

Advertising

Greenwich Weather History for the Previous 24 Hours

Scroll right to see more
 ConditionsComfort  
Time TempWeatherWind HumidityBarometerVisibility
9:30 pm
Tue, Jul 16
55 °FClear.17 mph55%30.09 "Hg10 mi
9:00 pm55 °FClear.17 mph55%30.09 "Hg10 mi
8:30 pm57 °FClear.18 mph48%30.09 "Hg10 mi
8:00 pm57 °FClear.20 mph48%30.09 "Hg10 mi
7:30 pm57 °FClear.18 mph48%30.09 "Hg10 mi
7:00 pm57 °FClear.17 mph48%30.07 "Hg10 mi
6:30 pm59 °FClear.17 mph45%30.07 "Hg10 mi
6:00 pm61 °FClear.20 mph42%30.04 "Hg10 mi
5:30 pm61 °FClear.18 mph45%30.04 "Hg10 mi
5:00 pm63 °FSunny.14 mph39%30.04 "Hg10 mi
4:30 pm64 °FSunny.18 mph34%30.01 "Hg10 mi
4:00 pm66 °FSunny.17 mph32%30.01 "Hg10 mi
3:30 pm70 °FSunny.14 mph29%30.01 "Hg10 mi
3:00 pm68 °FSunny.16 mph28%29.98 "Hg10 mi
2:30 pm70 °FSunny.18 mph29%29.98 "Hg10 mi
2:00 pm68 °FSunny.15 mph33%29.98 "Hg10 mi
1:30 pm70 °FSunny.14 mph29%29.98 "Hg10 mi
1:00 pm68 °FSunny.15 mph33%30.01 "Hg10 mi
12:30 pm68 °FSunny.13 mph35%30.01 "Hg10 mi
12:00 pm66 °FSunny.12 mph37%30.04 "Hg10 mi
11:30 am66 °FSunny.12 mph37%30.04 "Hg10 mi
11:00 am63 °FSunny.13 mph45%30.07 "Hg10 mi
10:30 am63 °FSunny.12 mph45%30.07 "Hg10 mi
10:00 am61 °FSunny.12 mph45%30.07 "Hg10 mi
9:30 am59 °FSunny.9 mph51%30.07 "Hg10 mi
9:00 am57 °FSunny.10 mph51%30.07 "Hg10 mi
8:30 am55 °FSunny.9 mph55%30.07 "Hg10 mi
8:00 am54 °FSunny.12 mph58%30.07 "Hg10 mi
7:30 am52 °FSunny.12 mph62%30.07 "Hg10 mi
7:00 am50 °FSunny.13 mph67%30.07 "Hg10 mi
6:30 am50 °FClear.16 mph67%30.04 "Hg10 mi
6:00 am48 °FClear.13 mph66%30.04 "Hg10 mi
5:30 am50 °FClear.10 mph67%30.01 "Hg10 mi
5:00 am50 °FClear.9 mph67%30.01 "Hg10 mi
4:30 am50 °FClear.9 mph62%30.01 "Hg10 mi
4:00 am50 °FClear.14 mph67%30.01 "Hg10 mi
3:30 am48 °FClear.13 mph66%30.01 "Hg10 mi
3:00 am50 °FClear.10 mph62%30.04 "Hg10 mi
2:30 am50 °FClear.10 mph58%30.04 "Hg10 mi
2:00 am50 °FClear.13 mph62%30.04 "Hg10 mi
1:30 am50 °FClear.10 mph62%30.04 "Hg10 mi
1:00 am52 °FClear.14 mph58%30.04 "Hg10 mi
12:30 am52 °FClear.13 mph54%30.04 "Hg10 mi
12:00 am52 °FClear.13 mph58%30.04 "Hg10 mi
11:30 pm
Mon, Jul 15
52 °FClear.10 mph54%30.07 "Hg10 mi
11:00 pm52 °FClear.13 mph54%30.07 "Hg10 mi
10:30 pm54 °FClear.16 mph51%30.07 "Hg10 mi
Weather by CustomWeather, © 2019

See weather overview

LIVE PARTIAL LUNAR ECLIPSE – Watch the eclipse as it happens